www.pogodaiklimat.ru

Погода и климат >> Архив погоды >> Буркина-Фасо >> Boromo


ПОГОДА в Boromo

  • Прогноз погоды в Boromo
  • Монитор погоды в Boromo
  • Климат города

АРХИВ ПОГОДЫ в Boromo

Время (UTC), дата Ветер
(напр.,м/с)
 
Видим.   Явления Облачность Т
(С)
Тd
(С)
f
(%)
Тe
(С)
Тes
(С)
Комфортность P
(гПа)
Po
(гПа)
Тmin
(С)
Tmax
(С)
R
(мм)
R24
(мм)
S
(см)
12 13.09 З 2 15 км 9/3 600 м
[Cu Sc Ci sp]
+31.8 +24.4 65 +44 +57 опасность
перегрева
1012.1 981.9
15 13.09 штиль 0 15 км 9/4 600 м
[Cu Sc Ci sp]
+34.0 +24.2 57 +46 +54 опасность
перегрева
1010.2 980.0
18 13.09 штиль 0 15 км {дождь} 9/1 600 м
[Sc Ac cuf Ci sp]
+32.0 +25.8 70 +47 +47 опасность
перегрева
1010.8 980.6 +34.1 0.0
00 14.09 штиль 0 10 км зарница 9/1 1200 м
[Cb cap Ci sp]
+27.0 +24.2 85 +38 +38 очень
душно
1011.1 981.0
03 14.09 СЗ 3 10 км 9/0
[Ac As Ci sp]
+22.6 +18.6 78 +28 +28 душно 1011.1 980.9
06 14.09 ЮЗ 2 10 км 9/0
[Ac As Ci sp]
+22.0 +19.4 85 +27 +27 душно 1010.5 980.2 +21.5 0.0
09 14.09 ЮЗ 1 15 км 9/0
[Ac As Ci sp]
+26.3 +20.6 71 +33 +42 очень
душно
1011.5 981.2
12 14.09 штиль 0 15 км 9/0
[Ci sp]
+31.8 +23.6 62 +43 +67 опасность
перегрева
1011.1 981.0
15 14.09 штиль 0 15 км 9/1 600 м
[Sc Ci sp]
+34.4 +23.4 53 +45 +57 опасность
перегрева
1008.5 978.4
18 14.09 штиль 0 15 км 9/0
[Ac As Ci sp]
+31.8 +24.4 65 +44 +44 опасность
перегрева
1009.0 978.8 +34.6
00 15.09 штиль 0 10 км 9/0
[Ci sp]
+26.7 +24.3 87 +37 +37 очень
душно
1010.4 980.3
03 15.09 штиль 0 10 км 9/0
[Ci sp]
+25.8 +24.5 93 +36 +36 очень
душно
1009.0 979.0
06 15.09 штиль 0 10 км 9/0
[Ci sp]
+25.4 +24.1 93 +35 +35 очень
душно
1009.8 979.6 +25.1
09 15.09 ЮЗ 2 15 км 9/1 600 м
[Sc Ci sp]
+29.2 +24.6 76 +41 +48 опасность
перегрева
1011.4 981.2
12 15.09 З 2 15 км 9/3 600 м
[Cu Sc Ci sp]
+33.4 +24.5 60 +46 +59 опасность
перегрева
1010.0 980.0
15 15.09 ЮЗ 1 15 км 9/1 600 м
[Cu Sc Ci sp]
+35.3 +23.4 50 +46 +56 опасность
перегрева
1007.4 977.5
18 15.09 штиль 0 15 км 9/1 600 м
[Cu Sc Ci sp]
+33.2 +24.6 61 +46 +46 опасность
перегрева
1007.2 977.2 +35.5
00 16.09 штиль 0 10 км зарница 9/1 1200 м
[Cb cap Ci sp]
+27.9 +24.4 81 +39 +39 очень
душно
1009.4 979.5
03 16.09 ЮЗ 1 10 км 9/0
[Ci sp]
+26.2 +24.1 88 +36 +36 очень
душно
1008.0 978.1
06 16.09 штиль 0 10 км 9/0
[Ci sp]
+25.5 +24.1 92 +35 +35 очень
душно
1009.5 979.5 +25.1
09 16.09 ЮЗ 1 15 км 9/1 600 м
[Sc Ci sp]
+28.6 +24.2 77 +40 +48 очень
душно
1010.5 980.4
12 16.09 ЮВ 4 6000 м гроза, ливневой дождь 10/1 1200 м
[Cb cap Ac As]
+22.3 +21.1 93 +29 +33 очень
душно
1014.0 983.4 19
15 16.09 штиль 0 10 км слабый ливневой дождь, в посл. час гроза 10/1 400 м
[St Ac As]
+22.2 +21.3 95 +29 +33 очень
душно
1011.6 980.9
18 16.09 штиль 0 10 км в посл. час дождь {гроза} 10/1 600 м
[Sc Ac As]
+22.2 +21.2 94 +29 +29 очень
душно
1008.6 978.1 +30.6 33
00 17.09 штиль 0 10 км 9/9 400 м
[St Ci sp]
+21.5 +20.7 95 +27 +27 душно 1012.2 981.4
03 17.09 штиль 0 10 км 10/1 600 м
[Sc Ac As]
+21.3 +20.4 95 +27 +27 душно 1011.8 980.9
06 17.09 штиль 0 10 км слабый дождь 10/1 400 м
[St Ac As]
+21.5 +20.7 95 +27 +27 душно 1013.2 982.3 +20.8 33
09 17.09 ЮЗ 2 10 км слабый дождь 9/1 400 м
[St Ac As Ci sp]
+22.9 +21.9 94 +31 +36 очень
душно
1014.8 983.9
12 17.09 З 1 15 км {дождь} 9/1 600 м
[Sc Ac As Ci sp]
+27.2 +22.0 73 +35 +48 очень
душно
1013.7 983.0 0.3
15 17.09 штиль 0 15 км в посл. час дождь 9/3 600 м
[Cu Sc Ac As Ci sp]
+28.2 +21.1 65 +35 +42 очень
душно
1012.2 981.6
18 17.09 штиль 0 15 км {дождь} 9/1 600 м
[Sc Ac cast Ci sp]
+27.5 +24.0 81 +38 +38 очень
душно
1012.5 981.9 +28.2 0.3
00 18.09 штиль 0 10 км 9/0
[Ci sp]
+24.0 +23.3 96 +32 +32 очень
душно
1013.7 983.2
03 18.09 штиль 0 10 км 9/0
[Ci sp]
+23.2 +22.3 95 +32 +32 очень
душно
1013.4 982.9
06 18.09 штиль 0 10 км 9/0
[Ac As Ci sp]
+22.9 +22.2 96 +31 +31 очень
душно
1014.7 984.0 +22.5 0.3
12 18.09 СЗ 2 15 км 9/6 600 м
[Cu Sc Ci sp]
+30.4 +23.5 67 +41 +49 опасность
перегрева
1014.2 983.8
18 18.09 штиль 0 15 км 9/1 600 м
[Sc Ci sp]
+31.0 +23.2 63 +41 +41 опасность
перегрева
1011.7 981.3 +32.5
00 19.09 штиль 0 10 км 9/0
[Ci sp]
+26.4 +25.1 93 +38 +38 очень
душно
1013.0 982.8
03 19.09 штиль 0 10 км 9/0
[Ci sp]
+25.5 +24.1 92 +35 +35 очень
душно
1010.7 980.6
09 19.09 штиль 0 15 км 9/0
[Ci sp]
+29.2 +24.1 74 +41 +51 опасность
перегрева
1012.8 982.5
12 19.09 штиль 0 15 км 9/1 600 м
[Sc Ci sp]
+32.1 +22.7 58 +42 +63 опасность
перегрева
1011.0 980.9
15 19.09 СЗ 3 15 км 9/1 600 м
[Sc Ac trans Ci sp]
+34.2 +23.8 55 +46 +51 опасность
перегрева
1007.8 977.8
18 19.09 штиль 0 10 км 9/0
[Ac As Ci sp]
+32.9 +24.7 62 +46 +46 опасность
перегрева
1008.0 977.9 +34.3
00 20.09 штиль 0 10 км 9/0
[Ci sp]
+28.2 +25.8 87 +42 +42 опасность
перегрева
1009.4 979.4
03 20.09 штиль 0 10 км 9/0
[Ci sp]
+27.0 +25.0 89 +39 +39 очень
душно
1007.7 977.8
06 20.09 штиль 0 10 км 9/0
[Ac As Ci sp]
+26.2 +24.6 91 +37 +37 очень
душно
1008.7 978.7 +26.0

 

Местоположение метеостанции Boromo (Буркина-Фасо): широта 11.75 долгота -2.93 высота над уровнем моря 271 м.

В архиве по умолчанию представлена погода в Boromo за последнюю неделю. Архивные данные за месяц целиком и за предыдущие месяцы, начиная с января 2011 года, Вы можете получить, выбрав интересующий диапазон дат из раскрывающегося списка и нажав кнопку "Ввод!".

Внимание! Время в таблицах - всемирное. Для получения местного времени необходимо прибавить поправку, которая в Boromo равна 0 ч.

Смотрите также архив погоды в соседних городах и на ближайших метеорологических станциях:

Погода в Dedougou (Буркина-Фасо) (100 км)
Погода в Gaoua (Буркина-Фасо) (160 км)
Погода в Bobo-Dioulasso (Буркина-Фасо) (165 км)
Погода в Ouagadougou (Буркина-Фасо) (167 км)
Погода в Wa (Гана) (195 км)
Погода в Po (Буркина-Фасо) (205 км)
Погода в Ouahigouya (Буркина-Фасо) (210 км)
Погода в Navrongo (Гана) (221 км)
Погода в San (Мали) (271 км)
Погода в Koutiala (Мали) (285 км)

Пояснения к столбцам:

Ветер - указаны скорость ветра в м/с - средняя за 10 мин, порывы в срок и между сроками (в фигурных скобках) и направление, откуда дует ветер: С - северный, СВ - северо-восточный, В - восточный, ЮВ - юго-восточный, Ю - южный, ЮЗ - юго-западный, З - западный, СЗ - северо-западный.
Видимость - горизонтальная дальность видимости в метрах или километрах. При видимости от 1 до 10 км при отсутствии осадков обычно наблюдается дымка, при ухудшении видимости до 1 км и менее - туман. В сухую погоду видимость может ухудшаться дымом, пылью или мглою.
Явления - указаны атмосферные явления, наблюдавшиеся в срок или в последний час перед сроком; фигурными скобками обозначены явления, наблюдавшиеся между сроками (за 1-3 часа до срока); квадратными скобками обозначены град или гололедные отложения с указанием их диаметра в мм.
Облачность - указаны через наклонную черту общая и нижняя облачность в баллах и высота нижней границы облаков в метрах; квадратными скобками обозначены формы облаков: Ci - перистые, Cs - перисто-слоистые, Cc - перисто-кучевые, Ac - высококучевые, As - высокослоистые, Sc - слоисто-кучевые, Ns - слоисто-дождевые, Cu - кучевые, Cb - кучево-дождевые. Подробнее классификацию облаков см. в Атласе облаков (PDF).
T - Температура воздуха - температура, измеренная на высоте 2 м над землей.
Td - Температура точки росы - температура, при понижении до которой содержащийся в воздухе водяной пар достигнет насыщения.
f - Относительная влажность воздуха - влажноcть воздуха, измеренная на высоте 2 м над землей.
Te - Эффективная температура - температура, которую ощущает одетый по сезону человек в тени. Характеристика душности погоды. При расчете учитывается влияние влажности воздуха и скорости ветра на теплоощущения человека.
Tes - Эффективная температура на солнце - температура, которую ощущает человек, с поправкой на солнечный нагрев. Характеристика знойности погоды. Зависит от высоты солнца над горизонтом, облачности и скорости ветра. Ночью, в пасмурную погоду, а также при ветре 12 м/с и более поправка равна нулю.
P - Атмосферное давление - приведенное к уровню моря атмосферное давление.
Po - Атмосферное давление - измеренное на уровне метеостанции атмосферное давление.
Tmin - Минимальная температура - минимум температуры воздуха на высоте 2 м над землей.
Tmax - Максимальная температура - максимум температуры воздуха на высоте 2 м над землей.
R - Количество осадков - Количество выпавших осадков за период времени, мм. При наведении курсора мыши на число - период времени, за который выпало указанное количество осадков.
R24 - Количество осадков - Количество выпавших осадков за 24 часа, мм.
S - Снежный покров - Высота снежного покрова, см. При наведении курсора мыши на число - состояние снежного покрова и степень покрытия местности в баллах.